When you browse on this site, cookies collect data to enhance your experience and personalize the content and advertising you see.
Visit our Privacy Policy to learn more. By continuing to use the site, you agree to this use of cookies and data.
  • In Hungary
  • List of Countries
  • For 7 days
  • Water Temperature
  • Satellite Maps
  • Weather Map
  • News
  • Weather Widgets
  • user-avatar
    Login

    Hourly Weather Bremen

    Today, 19 April, Friday

    Time Temperature Precipitation Wind Pressure Humidity
    00:00 +10°C° 0 mm 4 mps 772 mmHg 73%
    01:00 +9°C° 0 mm 3 mps 772 mmHg 77%
    02:00 +9°C° 0 mm 3 mps 772 mmHg 77%
    03:00 +8°C° 0 mm 3 mps 772 mmHg 78%
    04:00 +8°C° 0 mm 3 mps 772 mmHg 78%
    05:00 +9°C° 0 mm 3 mps 772 mmHg 77%
    06:00 +8°C° 0 mm 4 mps 773 mmHg 75%
    07:00 +10°C° 0 mm 4 mps 773 mmHg 74%
    08:00 +12°C° 0 mm 4 mps 773 mmHg 69%
    09:00 +14°C° 0 mm 4 mps 773 mmHg 65%
    10:00 +18°C° 0 mm 4 mps 773 mmHg 60%
    11:00 +19°C° 0 mm 4 mps 773 mmHg 55%
    12:00 +20°C° 0 mm 4 mps 773 mmHg 51%
    13:00 +22°C° 0 mm 4 mps 773 mmHg 46%
    14:00 +22°C° 0 mm 4 mps 773 mmHg 46%
    15:00 +22°C° 0 mm 4 mps 773 mmHg 47%
    16:00 +22°C° 0 mm 4 mps 772 mmHg 47%
    17:00 +20°C° 0 mm 3 mps 772 mmHg 53%
    18:00 +19°C° 0 mm 3 mps 773 mmHg 60%
    19:00 +17°C° 0 mm 2 mps 773 mmHg 66%
    20:00 +16°C° 0 mm 3 mps 773 mmHg 68%
    21:00 +13°C° 0 mm 3 mps 773 mmHg 70%
    22:00 +12°C° 0 mm 3 mps 774 mmHg 72%
    23:00 +11°C° 0 mm 3 mps 774 mmHg 72%

    Tomorrow, 20 April, Saturday

    Time Temperature Precipitation Wind Pressure Humidity
    00:00 +10°C° 0 mm 3 mps 774 mmHg 72%
    01:00 +10°C° 0 mm 3 mps 774 mmHg 72%
    02:00 +9°C° 0 mm 3 mps 774 mmHg 68%
    03:00 +8°C° 0 mm 3 mps 774 mmHg 64%
    04:00 +8°C° 0 mm 3 mps 774 mmHg 60%
    05:00 +8°C° 0 mm 3 mps 774 mmHg 60%
    06:00 +8°C° 0 mm 3 mps 774 mmHg 60%
    07:00 +9°C° 0 mm 3 mps 774 mmHg 59%
    08:00 +11°C° 0 mm 3 mps 774 mmHg 55%
    09:00 +13°C° 0 mm 3 mps 774 mmHg 51%
    10:00 +16°C° 0 mm 3 mps 773 mmHg 47%
    11:00 +18°C° 0 mm 3 mps 773 mmHg 44%
    12:00 +19°C° 0 mm 3 mps 773 mmHg 42%
    13:00 +20°C° 0 mm 3 mps 773 mmHg 39%
    14:00 +20°C° 0 mm 3 mps 772 mmHg 40%
    15:00 +20°C° 0 mm 3 mps 772 mmHg 41%
    16:00 +20°C° 0 mm 3 mps 772 mmHg 43%
    17:00 +18°C° 0 mm 3 mps 771 mmHg 50%
    18:00 +16°C° 0 mm 3 mps 771 mmHg 57%
    19:00 +13°C° 0 mm 3 mps 771 mmHg 65%
    20:00 +11°C° 0 mm 3 mps 771 mmHg 65%
    21:00 +10°C° 0 mm 3 mps 771 mmHg 65%
    22:00 +8°C° 0 mm 3 mps 772 mmHg 65%
    23:00 +7°C° 0 mm 3 mps 771 mmHg 65%

    Day after tomorrow, 21 April, Sunday

    Time Temperature Precipitation Wind Pressure Humidity
    00:00 +6°C° 0 mm 2 mps 771 mmHg 65%
    01:00 +5°C° 0 mm 2 mps 771 mmHg 64%
    02:00 +5°C° 0 mm 2 mps 770 mmHg 66%
    03:00 +5°C° 0 mm 2 mps 770 mmHg 68%
    04:00 +4°C° 0 mm 2 mps 770 mmHg 69%
    05:00 +5°C° 0 mm 2 mps 770 mmHg 69%
    06:00 +6°C° 0 mm 2 mps 769 mmHg 68%
    07:00 +7°C° 0 mm 2 mps 769 mmHg 68%
    08:00 +9°C° 0 mm 2 mps 769 mmHg 63%
    09:00 +12°C° 0 mm 2 mps 769 mmHg 59%
    10:00 +15°C° 0 mm 2 mps 768 mmHg 55%
    11:00 +16°C° 0 mm 2 mps 768 mmHg 51%
    12:00 +18°C° 0 mm 2 mps 767 mmHg 47%
    13:00 +19°C° 0 mm 2 mps 767 mmHg 43%
    14:00 +19°C° 0 mm 2 mps 766 mmHg 42%
    15:00 +20°C° 0 mm 2 mps 766 mmHg 42%
    16:00 +20°C° 0 mm 2 mps 765 mmHg 41%
    17:00 +18°C° 0 mm 2 mps 765 mmHg 48%
    18:00 +17°C° 0 mm 2 mps 764 mmHg 55%
    19:00 +15°C° 0 mm 2 mps 764 mmHg 61%
    20:00 +14°C° 0 mm 2 mps 764 mmHg 65%
    21:00 +11°C° 0 mm 3 mps 764 mmHg 68%
    22:00 +10°C° 0 mm 3 mps 764 mmHg 72%
    23:00 +10°C° 0 mm 3 mps 764 mmHg 74%

    22 April, Monday

    Time Temperature Precipitation Wind Pressure Humidity
    00:00 +9°C° 0 mm 3 mps 764 mmHg 77%
    01:00 +9°C° 0 mm 3 mps 763 mmHg 79%
    02:00 +8°C° 0 mm 3 mps 763 mmHg 79%
    03:00 +8°C° 0 mm 3 mps 763 mmHg 79%
    04:00 +7°C° 0 mm 3 mps 762 mmHg 79%
    05:00 +7°C° 0 mm 4 mps 762 mmHg 75%
    06:00 +7°C° 0 mm 4 mps 762 mmHg 71%
    07:00 +8°C° 0 mm 4 mps 762 mmHg 67%
    08:00 +10°C° 0 mm 5 mps 762 mmHg 62%
    09:00 +13°C° 0 mm 5 mps 761 mmHg 57%
    10:00 +15°C° 0 mm 6 mps 761 mmHg 52%
    11:00 +16°C° 0 mm 6 mps 761 mmHg 50%
    12:00 +17°C° 0 mm 6 mps 760 mmHg 47%
    13:00 +18°C° 0 mm 7 mps 760 mmHg 45%
    14:00 +18°C° 0 mm 7 mps 759 mmHg 46%
    15:00 +17°C° 0 mm 7 mps 759 mmHg 46%
    16:00 +17°C° 0 mm 7 mps 758 mmHg 46%
    17:00 +16°C° 0 mm 6 mps 758 mmHg 52%
    18:00 +15°C° 0 mm 5 mps 758 mmHg 58%
    19:00 +14°C° 0 mm 5 mps 758 mmHg 63%
    20:00 +13°C° 0 mm 5 mps 758 mmHg 63%
    21:00 +12°C° 0 mm 5 mps 758 mmHg 64%
    22:00 +10°C° 0 mm 5 mps 758 mmHg 64%
    23:00 +10°C° 0 mm 5 mps 757 mmHg 67%

    23 April, Tuesday

    Time Temperature Precipitation Wind Pressure Humidity
    00:00 +9°C° 0 mm 5 mps 757 mmHg 69%
    01:00 +9°C° 0 mm 5 mps 756 mmHg 71%
    02:00 +9°C° 0 mm 5 mps 756 mmHg 73%
    03:00 +9°C° 0 mm 5 mps 755 mmHg 74%
    04:00 +8°C° 0 mm 5 mps 755 mmHg 75%
    05:00 +9°C° 0 mm 6 mps 754 mmHg 75%
    06:00 +9°C° 0 mm 6 mps 753 mmHg 76%
    07:00 +9°C° 0 mm 7 mps 753 mmHg 76%
    08:00 +9°C° 0.9 mm 6 mps 752 mmHg 80%
    09:00 +9°C° 0.9 mm 6 mps 752 mmHg 85%
    10:00 +9°C° 0.9 mm 6 mps 751 mmHg 89%
    11:00 +9°C° 0.8 mm 5 mps 751 mmHg 90%
    12:00 +10°C° 0.8 mm 5 mps 750 mmHg 90%
    13:00 +11°C° 0.8 mm 4 mps 750 mmHg 91%
    14:00 +13°C° 0.6 mm 4 mps 749 mmHg 85%
    15:00 +15°C° 0.6 mm 4 mps 749 mmHg 80%
    16:00 +17°C° 0.6 mm 4 mps 749 mmHg 74%
    17:00 +17°C° 0.2 mm 3 mps 749 mmHg 77%
    18:00 +16°C° 0.2 mm 3 mps 749 mmHg 80%
    19:00 +15°C° 0.2 mm 2 mps 749 mmHg 83%
    20:00 +14°C° 0 mm 2 mps 749 mmHg 85%
    21:00 +12°C° 0 mm 1 mps 750 mmHg 88%
    22:00 +10°C° 0 mm 1 mps 750 mmHg 90%
    23:00 +9°C° 0 mm 0 mps 751 mmHg 90%

    24 April, Wednesday

    Time Temperature Precipitation Wind Pressure Humidity
    00:00 +9°C° 0 mm 0 mps 751 mmHg 91%
    01:00 +9°C° 0 mm 0 mps 751 mmHg 91%
    02:00 +9°C° 0 mm 0 mps 752 mmHg 90%
    03:00 +9°C° 0 mm 0 mps 752 mmHg 90%
    04:00 +9°C° 0 mm 0 mps 752 mmHg 90%
    05:00 +11°C° 0 mm 1 mps 753 mmHg 88%
    06:00 +12°C° 0 mm 1 mps 753 mmHg 87%
    07:00 +13°C° 0 mm 1 mps 753 mmHg 85%
    08:00 +15°C° 0 mm 2 mps 754 mmHg 79%
    09:00 +17°C° 0 mm 2 mps 754 mmHg 73%
    10:00 +19°C° 0 mm 2 mps 754 mmHg 68%
    11:00 +20°C° 0 mm 2 mps 754 mmHg 64%
    12:00 +21°C° 0 mm 3 mps 755 mmHg 60%
    13:00 +24°C° 0 mm 3 mps 755 mmHg 56%
    14:00 +24°C° 0 mm 3 mps 755 mmHg 55%
    15:00 +25°C° 0 mm 3 mps 755 mmHg 55%
    16:00 +25°C° 0 mm 3 mps 755 mmHg 55%
    17:00 +24°C° 0.1 mm 3 mps 755 mmHg 62%
    18:00 +21°C° 0.1 mm 2 mps 756 mmHg 68%
    19:00 +20°C° 0.1 mm 2 mps 756 mmHg 75%
    20:00 +19°C° 0 mm 2 mps 756 mmHg 78%
    21:00 +17°C° 0 mm 2 mps 757 mmHg 80%
    22:00 +16°C° 0 mm 2 mps 757 mmHg 83%
    23:00 +16°C° 0 mm 2 mps 757 mmHg 83%
    Show more